VK2OB Weather Reports


time (UTC)temp
F
wind
direction
speed
knots
gust
knots
rain 1hr
in
rain 24hr
in
rain mn
in
humidity
%
barometer
mb
20260505064659 69 180 0.0 0.9 0.00 0.09 0.00 53 1017.7
20260505064159 69 180 0.0 0.9 0.00 0.09 0.00 53 1017.6
20260505063659 69 180 0.0 0.9 0.00 0.09 0.00 53 1017.6
20260505063201 68 180 0.0 0.9 0.00 0.09 0.00 52 1017.7
20260505062702 69 180 0.0 0.9 0.00 0.09 0.00 52 1017.7
20260505062203 69 180 0.0 0.9 0.00 0.09 0.00 52 1017.5
20260505061704 69 180 0.0 0.9 0.00 0.09 0.00 52 1017.4
20260505061204 70 180 0.0 0.0 0.00 0.09 0.00 51 1017.5
20260505060705 70 180 0.0 0.0 0.00 0.09 0.00 50 1017.6
20260505060205 71 180 0.0 0.9 0.00 0.09 0.00 49 1017.6
20260505055707 71 180 0.0 0.9 0.00 0.09 0.00 49 1017.6
20260505055208 71 180 0.0 0.9 0.00 0.09 0.00 49 1017.5
20260505054703 71 180 0.0 1.7 0.00 0.09 0.00 48 1017.3
20260505052652 71 225 0.0 0.9 0.00 0.09 0.00 42 1017.3
20260505051644 71 225 0.0 0.0 0.00 0.09 0.00 43 1017.1
20260505050638 71 180 0.0 0.9 0.00 0.09 0.00 42 1017.2
20260505041340 72 225 0.0 0.9 0.00 0.09 0.00 45 1017.1
20260505040842 72 225 0.0 0.9 0.00 0.09 0.00 44 1017.1
20260505040343 72 225 0.0 1.7 0.00 0.09 0.00 47 1017.0
20260505035838 72 225 0.0 0.9 0.00 0.09 0.00 46 1017.0
20260505033330 71 225 0.0 0.9 0.00 0.09 0.00 47 1017.0
20260505032832 71 225 0.9 1.7 0.00 0.09 0.00 46 1017.0
20260505032333 71 225 0.0 1.7 0.00 0.09 0.00 47 1017.1
20260505031834 71 225 0.9 1.7 0.00 0.09 0.00 47 1017.1
20260505031334 71 225 0.0 1.7 0.00 0.09 0.00 46 1017.1
20260505030829 71 180 0.9 2.6 0.00 0.09 0.00 49 1017.2
20260505025827 71 225 0.0 0.9 0.00 0.09 0.00 49 1017.4
20260505025322 72 225 0.0 0.9 0.00 0.09 0.00 48 1017.6
20260505003228 67 225 0.0 0.9 0.00 0.09 0.00 54 1019.1
20260505002730 67 225 0.9 1.7 0.00 0.09 0.00 55 1019.2
20260505002231 67 225 0.0 0.9 0.00 0.09 0.00 56 1019.2
20260505001732 67 180 0.9 1.7 0.00 0.09 0.00 55 1019.3
20260505001233 67 203 0.9 1.7 0.00 0.09 0.00 55 1019.3
20260505000733 67 225 0.0 1.7 0.00 0.09 0.00 55 1019.3
20260505000234 67 225 0.0 1.7 0.00 0.09 0.00 54 1019.2
20260504235736 67 225 0.0 0.9 0.00 0.09 0.00 53 1019.2
20260504235237 67 225 0.0 0.9 0.00 0.09 0.00 51 1019.1
20260504234737 68 225 0.9 2.6 0.00 0.09 0.00 51 1019.0
20260504234238 68 225 1.7 3.5 0.00 0.09 0.00 52 1019.2
20260504233738 67 225 1.7 3.5 0.00 0.09 0.00 52 1019.3
20260504233240 67 225 1.7 4.3 0.00 0.09 0.00 54 1019.3
20260504232741 65 225 0.0 0.9 0.00 0.09 0.00 58 1019.3
20260504232242 65 225 0.0 0.9 0.00 0.09 0.00 60 1019.4
20260504231742 65 225 0.9 2.6 0.00 0.09 0.00 58 1019.3
20260504231243 65 225 0.9 2.6 0.00 0.09 0.00 61 1019.3
20260504230745 64 225 1.7 5.2 0.00 0.09 0.00 62 1019.4
20260504230240 63 225 0.9 1.7 0.00 0.09 0.00 66 1019.4
20260504225234 63 225 1.7 3.5 0.00 0.09 0.09 69 1019.4
20260504224736 63 225 0.9 1.7 0.00 0.09 0.09 71 1019.5
20260504224237 63 225 0.0 1.7 0.00 0.09 0.09 74 1019.4
20260504223738 63 225 0.9 1.7 0.00 0.09 0.09 75 1019.4
20260504223239 62 225 0.9 1.7 0.00 0.09 0.09 77 1019.4
20260504222739 62 225 0.9 3.5 0.00 0.09 0.09 77 1019.3
20260504222239 62 180 1.7 2.6 0.00 0.09 0.09 76 1019.3
20260504221740 62 203 1.7 2.6 0.01 0.09 0.09 75 1019.2
20260504221242 62 180 0.0 0.9 0.01 0.09 0.09 74 1019.0
20260504220743 62 225 1.7 2.6 0.01 0.09 0.09 73 1018.9
20260504220244 62 225 0.0 1.7 0.01 0.09 0.09 72 1018.7
20260504215744 62 270 2.6 6.1 0.01 0.09 0.09 73 1018.8
20260504215245 61 180 4.3 5.2 0.01 0.09 0.09 76 1018.7
20260504214747 61 225 1.7 3.5 0.01 0.09 0.09 78 1018.5
20260504214248 61 225 1.7 4.3 0.01 0.09 0.09 79 1018.6
20260504213749 61 225 0.9 1.7 0.01 0.09 0.09 81 1018.4
20260504213249 61 180 0.0 0.9 0.01 0.09 0.09 82 1018.3
20260504212750 61 225 1.7 2.6 0.01 0.09 0.09 84 1018.1
20260504212252 61 225 0.9 1.7 0.01 0.09 0.09 87 1018.1
20260504211753 61 225 0.0 0.9 0.00 0.09 0.09 90 1018.0
20260504211253 61 225 3.5 4.3 0.00 0.09 0.08 94 1017.9
20260504210754 61 270 1.7 2.6 0.00 0.08 0.08 95 1017.8
20260504210254 60 270 0.0 0.9 0.00 0.08 0.08 95 1017.7
20260504205755 61 270 0.0 0.9 0.00 0.08 0.08 95 1017.7
20260504205257 61 270 0.0 0.0 0.00 0.08 0.08 95 1017.6
20260504204758 61 270 0.0 0.0 0.00 0.08 0.08 95 1017.5
20260504204259 61 270 0.0 0.0 0.00 0.08 0.08 95 1017.4
20260504203759 61 270 0.0 0.0 0.00 0.08 0.08 95 1017.5
20260504203300 61 270 0.0 0.0 0.00 0.08 0.08 95 1017.5
20260504202802 62 270 0.0 0.0 0.00 0.08 0.08 95 1017.4
20260504202304 62 270 0.0 0.9 0.00 0.08 0.08 95 1017.2
20260504201758 63 270 0.0 0.9 0.00 0.08 0.08 95 1017.1
20260504201258 63 270 0.0 0.9 0.00 0.08 0.08 94 1017.1
20260504200759 63 270 0.0 0.9 0.00 0.08 0.08 94 1017.0
20260504200300 63 270 0.9 1.7 0.00 0.08 0.08 94 1017.0
20260504195801 63 270 0.0 1.7 0.00 0.08 0.08 94 1016.8
20260504195304 63 270 0.0 1.7 0.00 0.08 0.08 94 1016.8
20260504194803 63 270 0.0 1.7 0.00 0.08 0.08 95 1016.9
20260504194304 63 270 0.0 0.9 0.00 0.08 0.08 95 1016.9
20260504193805 63 270 0.0 0.9 0.00 0.08 0.08 95 1016.8
20260504193305 63 270 0.0 0.9 0.00 0.08 0.08 95 1016.7
20260504192806 63 270 0.0 0.9 0.00 0.08 0.08 95 1016.6
20260504192308 63 270 0.0 0.9 0.00 0.08 0.08 95 1016.5
20260504191809 63 270 0.0 0.9 0.00 0.08 0.08 95 1016.4
20260504191310 63 270 0.0 0.9 0.00 0.08 0.08 95 1016.4
20260504190811 63 270 0.0 0.0 0.00 0.08 0.08 95 1016.3
20260504190311 63 270 0.0 0.0 0.00 0.08 0.08 95 1016.2
20260504185813 63 270 0.0 0.0 0.00 0.08 0.08 95 1016.1
20260504185314 63 270 0.0 0.0 0.00 0.08 0.08 95 1016.2
20260504184815 63 270 0.0 0.0 0.00 0.08 0.08 95 1016.2
20260504184315 63 270 0.0 0.0 0.00 0.08 0.08 95 1016.2
20260504183817 63 270 0.0 0.0 0.00 0.08 0.08 95 1016.2
20260504183318 63 270 0.0 0.0 0.00 0.08 0.08 95 1016.2
20260504182819 63 270 0.0 0.0 0.00 0.08 0.08 95 1016.3
20260504182320 63 270 0.0 0.0 0.00 0.08 0.08 95 1016.3
20260504181821 63 270 0.0 0.0 0.00 0.08 0.08 94 1016.2
20260504181321 63 270 0.0 0.9 0.00 0.08 0.08 95 1016.1
20260504180823 63 270 0.0 0.9 0.00 0.08 0.08 94 1016.1
20260504180324 63 270 0.0 0.0 0.00 0.08 0.08 94 1016.0
20260504175825 63 270 0.0 0.0 0.00 0.08 0.08 94 1016.1
20260504175326 63 315 0.0 0.9 0.00 0.08 0.08 95 1016.2
20260504174826 63 315 0.0 0.9 0.00 0.08 0.08 94 1016.1
20260504174328 63 315 0.0 0.9 0.01 0.08 0.08 95 1016.1
20260504173829 63 315 0.9 1.7 0.01 0.08 0.08 94 1015.8
20260504173330 63 315 0.9 1.7 0.01 0.08 0.08 94 1015.8
20260504172831 63 315 0.0 0.9 0.01 0.08 0.08 94 1015.7
20260504172332 63 315 0.0 0.0 0.01 0.08 0.08 94 1015.8
20260504171832 63 315 0.0 1.7 0.01 0.08 0.08 94 1015.9
20260504171333 63 315 0.0 0.9 0.01 0.08 0.08 94 1016.1
20260504170835 63 315 0.0 0.0 0.01 0.08 0.08 94 1016.2
20260504170336 63 315 0.0 0.9 0.01 0.08 0.08 94 1016.2
20260504160347 64 315 0.9 1.7 0.02 0.07 0.07 93 1016.3
20260504150856 64 315 0.9 1.7 0.00 0.05 0.05 92 1016.0
20260504150357 64 315 0.9 1.7 0.00 0.05 0.05 92 1016.1
20260504140907 64 315 0.0 0.0 0.00 0.05 0.05 92 1015.4
20260504140409 64 315 0.0 0.9 0.00 0.05 0.05 92 1015.4
20260504130421 64 293 0.0 0.9 0.00 0.05 0.05 92 1015.8
20260504110445 65 225 0.0 0.0 0.05 0.05 0.05 91 1016.6
20260504100453 68 315 0.0 1.7 0.00 0.00 0.00 76 1016.8
20260504081515 71 0 0.0 0.9 0.00 0.00 0.00 64 1015.7
20260504081016 71 0 0.0 0.0 0.00 0.00 0.00 63 1015.7
20260504080517 71 315 0.0 0.0 0.00 0.00 0.00 62 1015.7